Time,TemperatureF,DewpointF,PressureIn,WindDirection,WindDirectionDegrees,WindSpeedMPH,WindSpeedGustMPH,Humidity,HourlyPrecipIn,Conditions,Clouds,dailyrainin,SolarRadiationWatts/m^2,SoftwareType,DateUTC
2013-06-17 00:00:00,69.4,67.7,30.08,SSE,164,0.0,0.0,94,0.00,,,0.00,0.00,VWS V14.01,2013-06-17 04:00:00,
2013-06-17 00:01:00,69.4,67.7,30.08,SSE,164,0.0,0.0,94,0.00,,,0.00,0.00,VWS V14.01,2013-06-17 04:01:00,
2013-06-17 00:02:00,69.4,67.7,30.08,SSE,164,0.0,0.0,94,0.00,,,0.00,0.00,VWS V14.01,2013-06-17 04:02:00,
2013-06-17 00:03:00,69.6,67.8,30.08,SSE,164,0.0,0.0,94,0.00,,,0.00,0.00,VWS V14.01,2013-06-17 04:03:00,
2013-06-17 00:04:00,69.6,67.8,30.08,SSE,164,0.0,0.0,94,0.00,,,0.00,0.00,VWS V14.01,2013-06-17 04:04:00,
2013-06-17 00:05:00,69.4,67.7,30.08,SSE,164,0.0,0.0,94,0.00,,,0.00,0.00,VWS V14.01,2013-06-17 04:05:00,
2013-06-17 00:06:00,69.4,67.7,30.08,SSE,164,0.0,0.0,94,0.00,,,0.00,0.00,VWS V14.01,2013-06-17 04:06:00,
2013-06-17 00:07:00,69.4,67.7,30.08,SSE,164,0.0,0.0,94,0.00,,,0.00,0.00,VWS V14.01,2013-06-17 04:07:00,
2013-06-17 00:08:00,69.4,67.7,30.08,SSE,164,0.0,0.0,94,0.00,,,0.00,0.00,VWS V14.01,2013-06-17 04:08:00,
2013-06-17 00:09:00,69.3,67.6,30.08,SSE,164,0.0,0.0,94,0.00,,,0.00,0.00,VWS V14.01,2013-06-17 04:09:00,
2013-06-17 00:10:00,69.3,67.2,30.08,SSE,164,0.0,0.0,93,0.00,,,0.00,0.00,VWS V14.01,2013-06-17 04:10:00,
2013-06-17 00:11:00,69.2,67.4,30.08,SSE,164,0.0,0.0,94,0.00,,,0.00,0.00,VWS V14.01,2013-06-17 04:11:00,
2013-06-17 00:12:00,69.3,67.6,30.08,SSE,164,0.0,0.0,94,0.00,,,0.00,0.00,VWS V14.01,2013-06-17 04:12:00,
2013-06-17 00:13:00,69.3,67.6,30.08,SSE,164,0.0,0.0,94,0.00,,,0.00,0.00,VWS V14.01,2013-06-17 04:13:00,
2013-06-17 00:14:00,69.3,67.6,30.08,SSE,164,0.0,0.0,94,0.00,,,0.00,0.00,VWS V14.01,2013-06-17 04:14:00,
2013-06-17 00:15:00,69.3,67.6,30.08,SSE,164,0.0,0.0,94,0.00,,,0.00,0.00,VWS V14.01,2013-06-17 04:15:00,
2013-06-17 00:16:00,69.3,67.6,30.07,SSE,164,0.0,0.0,94,0.00,,,0.00,0.00,VWS V14.01,2013-06-17 04:16:00,
2013-06-17 00:17:00,69.2,67.4,30.07,SSE,164,0.0,0.0,94,0.00,,,0.00,0.00,VWS V14.01,2013-06-17 04:17:00,
2013-06-17 00:18:00,69.3,67.6,30.08,SSE,164,0.0,0.0,94,0.00,,,0.00,0.00,VWS V14.01,2013-06-17 04:18:00,
2013-06-17 00:19:00,69.3,67.6,30.07,SSE,164,0.0,0.0,94,0.00,,,0.00,0.00,VWS V14.01,2013-06-17 04:19:00,
2013-06-17 00:20:00,69.3,67.6,30.07,SSE,164,0.0,0.0,94,0.00,,,0.00,0.00,VWS V14.01,2013-06-17 04:20:00,
2013-06-17 00:21:00,69.3,67.6,30.07,SSE,164,0.0,0.0,94,0.00,,,0.00,0.00,VWS V14.01,2013-06-17 04:21:00,
2013-06-17 00:22:00,69.3,67.6,30.07,SSE,164,0.0,0.0,94,0.00,,,0.00,0.00,VWS V14.01,2013-06-17 04:22:00,
2013-06-17 00:23:00,69.3,67.6,30.07,SSE,164,0.0,0.0,94,0.00,,,0.00,0.00,VWS V14.01,2013-06-17 04:23:00,
2013-06-17 00:24:00,69.2,67.4,30.08,SSE,164,0.0,0.0,94,0.00,,,0.00,0.00,VWS V14.01,2013-06-17 04:24:00,
2013-06-17 00:25:00,69.2,67.4,30.07,SSE,164,0.0,0.0,94,0.00,,,0.00,0.00,VWS V14.01,2013-06-17 04:25:00,
2013-06-17 00:26:00,69.2,67.3,30.07,SSE,164,0.0,0.0,94,0.00,,,0.00,0.00,VWS V14.01,2013-06-17 04:26:00,
2013-06-17 00:27:00,69.2,67.3,30.07,SSE,164,0.0,0.0,94,0.00,,,0.00,0.00,VWS V14.01,2013-06-17 04:27:00,
2013-06-17 00:28:00,69.1,67.2,30.07,SSE,164,0.0,0.0,94,0.00,,,0.00,0.00,VWS V14.01,2013-06-17 04:28:00,
2013-06-17 00:29:00,69.1,67.2,30.07,SSE,164,0.0,0.0,94,0.00,,,0.00,0.00,VWS V14.01,2013-06-17 04:29:00,
2013-06-17 00:30:00,68.9,67.2,30.07,SSE,164,0.0,0.0,94,0.00,,,0.00,0.00,VWS V14.01,2013-06-17 04:30:00,
2013-06-17 00:31:00,68.9,67.2,30.07,SSE,164,0.0,0.0,94,0.00,,,0.00,0.00,VWS V14.01,2013-06-17 04:31:00,
2013-06-17 00:32:00,69.1,67.2,30.07,SSE,164,0.0,0.0,94,0.00,,,0.00,0.00,VWS V14.01,2013-06-17 04:32:00,
2013-06-17 00:33:00,69.1,67.6,30.07,SSE,164,0.0,0.0,95,0.00,,,0.00,0.00,VWS V14.01,2013-06-17 04:33:00,
2013-06-17 00:34:00,68.9,67.2,30.07,SSE,164,0.0,0.0,94,0.00,,,0.00,0.00,VWS V14.01,2013-06-17 04:34:00,
2013-06-17 00:35:00,68.9,67.2,30.07,SSE,164,0.0,0.0,94,0.00,,,0.00,0.00,VWS V14.01,2013-06-17 04:35:00,
2013-06-17 00:36:00,68.9,67.2,30.07,SSE,164,0.0,0.0,94,0.00,,,0.00,0.00,VWS V14.01,2013-06-17 04:36:00,
2013-06-17 00:37:00,68.9,67.5,30.07,SSE,164,0.0,0.0,95,0.00,,,0.00,0.00,VWS V14.01,2013-06-17 04:37:00,
2013-06-17 00:38:00,68.9,67.5,30.07,SSE,164,0.0,0.0,95,0.00,,,0.00,0.00,VWS V14.01,2013-06-17 04:38:00,
2013-06-17 00:39:00,68.8,67.4,30.07,SSE,164,0.0,0.0,95,0.00,,,0.00,0.00,VWS V14.01,2013-06-17 04:39:00,
2013-06-17 00:40:00,68.8,67.4,30.07,SSE,164,0.0,0.0,95,0.00,,,0.00,0.00,VWS V14.01,2013-06-17 04:40:00,
2013-06-17 00:41:00,68.8,67.4,30.07,SSE,164,0.0,0.0,95,0.00,,,0.00,0.00,VWS V14.01,2013-06-17 04:41:00,
2013-06-17 00:42:00,68.8,67.4,30.07,SSE,164,0.0,0.0,95,0.00,,,0.00,0.00,VWS V14.01,2013-06-17 04:42:00,
2013-06-17 00:43:00,68.8,67.4,30.07,SSE,164,0.0,0.0,95,0.00,,,0.00,0.00,VWS V14.01,2013-06-17 04:43:00,
2013-06-17 00:44:00,68.8,67.4,30.07,SSE,164,0.0,0.0,95,0.00,,,0.00,0.00,VWS V14.01,2013-06-17 04:44:00,
2013-06-17 00:45:00,68.8,67.4,30.07,SSE,164,0.0,0.0,95,0.00,,,0.00,0.00,VWS V14.01,2013-06-17 04:45:00,
2013-06-17 00:46:00,68.8,67.4,30.07,SSE,164,0.0,0.0,95,0.00,,,0.00,0.00,VWS V14.01,2013-06-17 04:46:00,
2013-06-17 00:47:00,68.8,67.4,30.07,SSE,164,0.0,0.0,95,0.00,,,0.00,0.00,VWS V14.01,2013-06-17 04:47:00,
2013-06-17 00:48:00,68.8,67.4,30.07,SSE,164,0.0,0.0,95,0.00,,,0.00,0.00,VWS V14.01,2013-06-17 04:48:00,
2013-06-17 00:49:00,68.8,67.4,30.07,SSE,164,0.0,0.0,95,0.00,,,0.00,0.00,VWS V14.01,2013-06-17 04:49:00,
2013-06-17 00:50:00,68.8,67.4,30.07,SSE,164,0.0,0.0,95,0.00,,,0.00,0.00,VWS V14.01,2013-06-17 04:50:00,
2013-06-17 00:51:00,68.9,67.5,30.07,SSE,164,0.0,0.0,95,0.00,,,0.00,0.00,VWS V14.01,2013-06-17 04:51:00,
2013-06-17 00:52:00,68.9,67.5,30.07,SSE,164,0.0,0.0,95,0.00,,,0.00,0.00,VWS V14.01,2013-06-17 04:52:00,
2013-06-17 00:53:00,68.9,67.5,30.07,SSE,164,0.0,0.0,95,0.00,,,0.00,0.00,VWS V14.01,2013-06-17 04:53:00,
2013-06-17 00:54:00,68.9,67.5,30.07,SSE,164,0.0,0.0,95,0.00,,,0.00,0.00,VWS V14.01,2013-06-17 04:54:00,
2013-06-17 00:55:00,68.9,67.5,30.07,SSE,164,0.0,0.0,95,0.00,,,0.00,0.00,VWS V14.01,2013-06-17 04:55:00,
2013-06-17 00:56:00,68.9,67.5,30.07,SSE,164,0.0,0.0,95,0.00,,,0.00,0.00,VWS V14.01,2013-06-17 04:56:00,
2013-06-17 00:57:00,68.8,67.4,30.07,SSE,164,0.0,0.0,95,0.00,,,0.00,0.00,VWS V14.01,2013-06-17 04:57:00,
2013-06-17 00:58:00,68.9,67.5,30.07,SSE,164,0.0,0.0,95,0.00,,,0.00,0.00,VWS V14.01,2013-06-17 04:58:00,
2013-06-17 00:59:00,68.8,67.4,30.07,SSE,164,0.0,0.0,95,0.00,,,0.00,0.00,VWS V14.01,2013-06-17 04:59:00,
2013-06-17 01:00:00,68.8,67.4,30.07,SSE,164,0.0,0.0,95,0.00,,,0.00,0.00,VWS V14.01,2013-06-17 05:00:00,
2013-06-17 01:01:00,68.8,67.4,30.07,SSE,164,0.0,0.0,95,0.00,,,0.00,0.00,VWS V14.01,2013-06-17 05:01:00,
2013-06-17 01:02:00,68.8,67.4,30.07,SSE,164,0.0,0.0,95,0.00,,,0.00,0.00,VWS V14.01,2013-06-17 05:02:00,
2013-06-17 01:03:00,68.8,67.4,30.07,SSE,164,0.0,0.0,95,0.00,,,0.00,0.00,VWS V14.01,2013-06-17 05:03:00,
2013-06-17 01:04:00,68.8,67.4,30.07,SSE,164,0.0,0.0,95,0.00,,,0.00,0.00,VWS V14.01,2013-06-17 05:04:00,
2013-06-17 01:05:00,68.8,67.3,30.07,SSE,164,0.0,0.0,95,0.00,,,0.00,0.00,VWS V14.01,2013-06-17 05:05:00,
2013-06-17 01:06:00,68.8,67.4,30.07,SSE,164,0.0,0.0,95,0.00,,,0.00,0.00,VWS V14.01,2013-06-17 05:06:00,
2013-06-17 01:07:00,68.8,67.3,30.07,SSE,164,0.0,0.0,95,0.00,,,0.00,0.00,VWS V14.01,2013-06-17 05:07:00,
2013-06-17 01:08:00,68.8,67.3,30.07,SSE,164,0.0,0.0,95,0.00,,,0.00,0.00,VWS V14.01,2013-06-17 05:08:00,
2013-06-17 01:09:00,68.8,67.4,30.07,SSE,164,0.0,0.0,95,0.00,,,0.00,0.00,VWS V14.01,2013-06-17 05:09:00,
2013-06-17 01:10:00,68.8,67.4,30.07,SSE,164,0.0,0.0,95,0.00,,,0.00,0.00,VWS V14.01,2013-06-17 05:10:00,
2013-06-17 01:11:00,68.8,67.4,30.07,SSE,164,0.0,0.0,95,0.00,,,0.00,0.00,VWS V14.01,2013-06-17 05:11:00,
2013-06-17 01:12:00,68.8,67.3,30.07,SSE,164,0.0,0.0,95,0.00,,,0.00,0.00,VWS V14.01,2013-06-17 05:12:00,
2013-06-17 01:13:00,68.8,67.3,30.07,SSE,164,0.0,0.0,95,0.00,,,0.00,0.00,VWS V14.01,2013-06-17 05:13:00,
2013-06-17 01:14:00,68.8,67.3,30.07,SSE,164,0.0,0.0,95,0.00,,,0.00,0.00,VWS V14.01,2013-06-17 05:14:00,
2013-06-17 01:15:00,68.8,67.3,30.07,SSE,164,0.0,0.0,95,0.00,,,0.00,0.00,VWS V14.01,2013-06-17 05:15:00,
2013-06-17 01:16:00,68.8,67.3,30.07,SSE,164,0.0,0.0,95,0.00,,,0.00,0.00,VWS V14.01,2013-06-17 05:16:00,
2013-06-17 01:17:00,68.8,67.3,30.07,SSE,164,0.0,0.0,95,0.00,,,0.00,0.00,VWS V14.01,2013-06-17 05:17:00,
2013-06-17 01:18:00,68.8,67.4,30.07,SSE,164,0.0,0.0,95,0.00,,,0.00,0.00,VWS V14.01,2013-06-17 05:18:00,
2013-06-17 01:19:00,68.8,67.4,30.07,SSE,164,0.0,0.0,95,0.00,,,0.00,0.00,VWS V14.01,2013-06-17 05:19:00,
2013-06-17 01:20:00,68.8,67.4,30.07,SSE,164,0.0,0.0,95,0.00,,,0.00,0.00,VWS V14.01,2013-06-17 05:20:00,
2013-06-17 01:21:00,68.9,67.5,30.07,SSE,164,0.0,0.0,95,0.00,,,0.00,0.00,VWS V14.01,2013-06-17 05:21:00,
2013-06-17 01:22:00,68.8,67.4,30.07,SSE,164,0.0,0.0,95,0.00,,,0.00,0.00,VWS V14.01,2013-06-17 05:22:00,
2013-06-17 01:23:00,68.8,67.4,30.07,SSE,164,0.0,0.0,95,0.00,,,0.00,0.00,VWS V14.01,2013-06-17 05:23:00,
2013-06-17 01:24:00,68.8,67.4,30.07,SSE,164,0.0,0.0,95,0.00,,,0.00,0.00,VWS V14.01,2013-06-17 05:24:00,
2013-06-17 01:25:00,68.8,67.3,30.07,SSE,164,0.0,0.0,95,0.00,,,0.00,0.00,VWS V14.01,2013-06-17 05:25:00,
2013-06-17 01:26:00,68.8,67.3,30.07,SSE,164,0.0,0.0,95,0.00,,,0.00,0.00,VWS V14.01,2013-06-17 05:26:00,
2013-06-17 01:27:00,68.8,67.3,30.07,SSE,164,0.0,0.0,95,0.00,,,0.00,0.00,VWS V14.01,2013-06-17 05:27:00,
2013-06-17 01:28:00,68.8,67.3,30.07,SSE,164,0.0,0.0,95,0.00,,,0.00,0.00,VWS V14.01,2013-06-17 05:28:00,
2013-06-17 01:29:00,68.8,67.6,30.07,SSE,164,0.0,0.0,96,0.00,,,0.00,0.00,VWS V14.01,2013-06-17 05:29:00,
2013-06-17 01:30:00,68.8,67.6,30.07,SSE,164,0.0,0.0,96,0.00,,,0.00,0.00,VWS V14.01,2013-06-17 05:30:00,
2013-06-17 01:31:00,68.8,67.7,30.07,SSE,164,0.0,0.0,96,0.00,,,0.00,0.00,VWS V14.01,2013-06-17 05:31:00,
2013-06-17 01:32:00,68.8,67.7,30.07,SSE,164,0.0,0.0,96,0.00,,,0.00,0.00,VWS V14.01,2013-06-17 05:32:00,
2013-06-17 01:33:00,68.8,67.7,30.07,SSE,164,0.0,0.0,96,0.00,,,0.00,0.00,VWS V14.01,2013-06-17 05:33:00,
2013-06-17 01:34:00,68.8,67.3,30.07,SSE,164,0.0,0.0,95,0.00,,,0.00,0.00,VWS V14.01,2013-06-17 05:34:00,
2013-06-17 01:35:00,68.8,67.3,30.07,SSE,164,0.0,0.0,95,0.00,,,0.00,0.00,VWS V14.01,2013-06-17 05:35:00,
2013-06-17 01:36:00,68.7,67.2,30.06,SSE,164,0.0,0.0,95,0.00,,,0.00,0.00,VWS V14.01,2013-06-17 05:36:00,
2013-06-17 01:37:00,68.7,67.5,30.06,SSE,164,0.0,0.0,96,0.00,,,0.00,0.00,VWS V14.01,2013-06-17 05:37:00,
2013-06-17 01:38:00,68.7,67.5,30.06,SSE,164,0.0,0.0,96,0.00,,,0.00,0.00,VWS V14.01,2013-06-17 05:38:00,
2013-06-17 01:39:00,68.8,67.6,30.06,SSE,164,0.0,0.0,96,0.00,,,0.00,0.00,VWS V14.01,2013-06-17 05:39:00,
2013-06-17 01:40:00,68.8,67.6,30.06,SSE,164,0.0,0.0,96,0.00,,,0.00,0.00,VWS V14.01,2013-06-17 05:40:00,
2013-06-17 01:41:00,68.8,67.6,30.07,SSE,164,0.0,0.0,96,0.00,,,0.00,0.00,VWS V14.01,2013-06-17 05:41:00,
2013-06-17 01:42:00,68.7,67.5,30.07,SSE,164,0.0,0.0,96,0.00,,,0.00,0.00,VWS V14.01,2013-06-17 05:42:00,
2013-06-17 01:43:00,68.7,67.5,30.07,SSE,164,0.0,0.0,96,0.00,,,0.00,0.00,VWS V14.01,2013-06-17 05:43:00,
2013-06-17 01:44:00,68.6,67.4,30.07,SSE,164,0.0,0.0,96,0.00,,,0.00,0.00,VWS V14.01,2013-06-17 05:44:00,
2013-06-17 01:45:00,68.6,67.4,30.07,SSE,164,0.0,0.0,96,0.00,,,0.00,0.00,VWS V14.01,2013-06-17 05:45:00,
2013-06-17 01:46:00,68.7,67.5,30.06,SSE,164,0.0,0.0,96,0.00,,,0.00,0.00,VWS V14.01,2013-06-17 05:46:00,
2013-06-17 01:47:00,68.7,67.5,30.06,SSE,164,0.0,0.0,96,0.00,,,0.00,0.00,VWS V14.01,2013-06-17 05:47:00,
2013-06-17 01:48:00,68.7,67.5,30.06,SSE,164,0.0,0.0,96,0.00,,,0.00,0.00,VWS V14.01,2013-06-17 05:48:00,
2013-06-17 01:49:00,68.7,67.5,30.06,SSE,164,0.0,0.0,96,0.00,,,0.00,0.00,VWS V14.01,2013-06-17 05:49:00,
2013-06-17 01:50:00,68.7,67.5,30.06,SSE,164,0.0,0.0,96,0.00,,,0.00,0.00,VWS V14.01,2013-06-17 05:50:00,
2013-06-17 01:51:00,68.7,67.5,30.06,SSE,164,0.0,0.0,96,0.00,,,0.00,0.00,VWS V14.01,2013-06-17 05:51:00,
2013-06-17 01:52:00,68.7,67.5,30.06,SSE,164,0.0,0.0,96,0.00,,,0.00,0.00,VWS V14.01,2013-06-17 05:52:00,
2013-06-17 01:53:00,68.7,67.5,30.06,SSE,164,0.0,0.0,96,0.00,,,0.00,0.00,VWS V14.01,2013-06-17 05:53:00,
2013-06-17 01:54:00,68.6,67.4,30.06,SSE,164,0.0,0.0,96,0.00,,,0.00,0.00,VWS V14.01,2013-06-17 05:54:00,
2013-06-17 01:55:00,68.4,67.3,30.06,SSE,164,0.0,0.0,96,0.00,,,0.00,0.00,VWS V14.01,2013-06-17 05:55:00,
2013-06-17 01:56:00,68.4,67.3,30.06,SSE,164,0.0,0.0,96,0.00,,,0.00,0.00,VWS V14.01,2013-06-17 05:56:00,
2013-06-17 01:57:00,68.4,67.3,30.06,SSE,164,0.0,0.0,96,0.00,,,0.00,0.00,VWS V14.01,2013-06-17 05:57:00,
2013-06-17 01:58:00,68.4,67.3,30.06,SSE,164,0.0,0.0,96,0.00,,,0.00,0.00,VWS V14.01,2013-06-17 05:58:00,
2013-06-17 01:59:00,68.4,67.3,30.06,SSE,164,0.0,0.0,96,0.00,,,0.00,0.00,VWS V14.01,2013-06-17 05:59:00,
2013-06-17 02:00:00,68.4,67.3,30.06,SSE,164,0.0,0.0,96,0.00,,,0.00,0.00,VWS V14.01,2013-06-17 06:00:00,
2013-06-17 02:01:00,68.4,67.3,30.06,SSE,164,0.0,0.0,96,0.00,,,0.00,0.00,VWS V14.01,2013-06-17 06:01:00,
2013-06-17 02:02:00,68.6,67.4,30.06,SSE,164,0.0,0.0,96,0.00,,,0.00,0.00,VWS V14.01,2013-06-17 06:02:00,
2013-06-17 02:03:00,68.6,67.4,30.06,SSE,164,0.0,0.0,96,0.00,,,0.00,0.00,VWS V14.01,2013-06-17 06:03:00,
2013-06-17 02:04:00,68.6,67.4,30.06,SSE,164,0.0,0.0,96,0.00,,,0.00,0.00,VWS V14.01,2013-06-17 06:04:00,
2013-06-17 02:05:00,68.6,67.4,30.06,SSE,164,0.0,0.0,96,0.00,,,0.00,0.00,VWS V14.01,2013-06-17 06:05:00,
2013-06-17 02:06:00,68.6,67.4,30.07,SSE,164,0.0,0.0,96,0.00,,,0.00,0.00,VWS V14.01,2013-06-17 06:06:00,
2013-06-17 02:07:00,68.4,67.3,30.07,SSE,164,0.0,0.0,96,0.00,,,0.00,0.00,VWS V14.01,2013-06-17 06:07:00,
2013-06-17 02:08:00,68.4,67.3,30.06,SSE,164,0.0,0.0,96,0.00,,,0.00,0.00,VWS V14.01,2013-06-17 06:08:00,
2013-06-17 02:09:00,68.4,67.3,30.06,SSE,164,0.0,0.0,96,0.00,,,0.00,0.00,VWS V14.01,2013-06-17 06:09:00,
2013-06-17 02:10:00,68.4,67.3,30.06,SSE,164,0.0,0.0,96,0.00,,,0.00,0.00,VWS V14.01,2013-06-17 06:10:00,
2013-06-17 02:11:00,68.3,67.2,30.07,SSE,164,0.0,0.0,96,0.00,,,0.00,0.00,VWS V14.01,2013-06-17 06:11:00,
2013-06-17 02:12:00,68.3,67.2,30.07,SSE,164,0.0,0.0,96,0.00,,,0.00,0.00,VWS V14.01,2013-06-17 06:12:00,
2013-06-17 02:13:00,68.3,67.2,30.06,SSE,164,0.0,0.0,96,0.00,,,0.00,0.00,VWS V14.01,2013-06-17 06:13:00,
2013-06-17 02:14:00,68.4,67.3,30.06,SSE,164,0.0,0.0,96,0.00,,,0.00,0.00,VWS V14.01,2013-06-17 06:14:00,
2013-06-17 02:15:00,68.4,67.3,30.06,SSE,164,0.0,0.0,96,0.00,,,0.00,0.00,VWS V14.01,2013-06-17 06:15:00,
2013-06-17 02:16:00,68.6,67.4,30.06,SSE,164,0.0,0.0,96,0.00,,,0.00,0.00,VWS V14.01,2013-06-17 06:16:00,
2013-06-17 02:17:00,68.6,67.4,30.06,SSE,164,0.0,0.0,96,0.00,,,0.00,0.00,VWS V14.01,2013-06-17 06:17:00,
2013-06-17 02:18:00,68.7,67.5,30.06,SSE,164,0.0,0.0,96,0.00,,,0.00,0.00,VWS V14.01,2013-06-17 06:18:00,
2013-06-17 02:19:00,68.7,67.5,30.06,SSE,164,0.0,0.0,96,0.00,,,0.00,0.00,VWS V14.01,2013-06-17 06:19:00,
2013-06-17 02:20:00,68.7,67.5,30.06,SSE,164,0.0,0.0,96,0.00,,,0.00,0.00,VWS V14.01,2013-06-17 06:20:00,
2013-06-17 02:21:00,68.7,67.5,30.06,SSE,164,0.0,0.0,96,0.00,,,0.00,0.00,VWS V14.01,2013-06-17 06:21:00,
2013-06-17 02:22:00,68.7,67.5,30.06,SSE,164,0.0,0.0,96,0.00,,,0.00,0.00,VWS V14.01,2013-06-17 06:22:00,
2013-06-17 02:23:00,68.7,67.5,30.06,SSE,164,0.0,0.0,96,0.00,,,0.00,0.00,VWS V14.01,2013-06-17 06:23:00,
2013-06-17 02:24:00,68.7,67.5,30.06,SSE,164,0.0,0.0,96,0.00,,,0.00,0.00,VWS V14.01,2013-06-17 06:24:00,
2013-06-17 02:25:00,68.8,67.6,30.06,SSE,164,0.0,0.0,96,0.00,,,0.00,0.00,VWS V14.01,2013-06-17 06:25:00,
2013-06-17 02:26:00,68.7,67.5,30.06,SSE,164,0.0,0.0,96,0.00,,,0.00,0.00,VWS V14.01,2013-06-17 06:26:00,
2013-06-17 02:27:00,68.8,67.6,30.06,SSE,164,0.0,0.0,96,0.00,,,0.00,0.00,VWS V14.01,2013-06-17 06:27:00,
2013-06-17 02:28:00,68.8,67.6,30.06,SSE,164,0.0,0.0,96,0.00,,,0.00,0.00,VWS V14.01,2013-06-17 06:28:00,
2013-06-17 02:29:00,68.7,67.5,30.06,SSE,164,0.0,0.0,96,0.00,,,0.00,0.00,VWS V14.01,2013-06-17 06:29:00,
2013-06-17 02:30:00,68.6,67.4,30.06,SSE,164,0.0,0.0,96,0.00,,,0.00,0.00,VWS V14.01,2013-06-17 06:30:00,
2013-06-17 02:31:00,68.6,67.4,30.06,SSE,164,0.0,0.0,96,0.00,,,0.00,0.00,VWS V14.01,2013-06-17 06:31:00,
2013-06-17 02:32:00,68.4,67.3,30.06,SSE,164,0.0,0.0,96,0.00,,,0.00,0.00,VWS V14.01,2013-06-17 06:32:00,
2013-06-17 02:33:00,68.4,67.3,30.06,SSE,164,0.0,0.0,96,0.00,,,0.00,0.00,VWS V14.01,2013-06-17 06:33:00,
2013-06-17 02:34:00,68.4,67.3,30.06,SSE,164,0.0,0.0,96,0.00,,,0.00,0.00,VWS V14.01,2013-06-17 06:34:00,
2013-06-17 02:35:00,68.3,67.2,30.06,SSE,164,0.0,0.0,96,0.00,,,0.00,0.00,VWS V14.01,2013-06-17 06:35:00,
2013-06-17 02:36:00,68.3,67.2,30.06,SSE,164,0.0,0.0,96,0.00,,,0.00,0.00,VWS V14.01,2013-06-17 06:36:00,
2013-06-17 02:37:00,68.2,67.1,30.06,SSE,164,0.0,0.0,96,0.00,,,0.00,0.00,VWS V14.01,2013-06-17 06:37:00,
2013-06-17 02:38:00,68.2,67.1,30.06,SSE,164,0.0,0.0,96,0.00,,,0.00,0.00,VWS V14.01,2013-06-17 06:38:00,
2013-06-17 02:39:00,68.2,67.1,30.06,SSE,164,0.0,0.0,96,0.00,,,0.00,0.00,VWS V14.01,2013-06-17 06:39:00,
2013-06-17 02:40:00,68.2,67.1,30.06,SSE,164,0.0,0.0,96,0.00,,,0.00,0.00,VWS V14.01,2013-06-17 06:40:00,
2013-06-17 02:41:00,68.2,67.0,30.06,SSE,164,0.0,0.0,96,0.00,,,0.00,0.00,VWS V14.01,2013-06-17 06:41:00,
2013-06-17 02:42:00,68.2,67.0,30.06,SSE,164,0.0,0.0,96,0.00,,,0.00,0.00,VWS V14.01,2013-06-17 06:42:00,
2013-06-17 02:43:00,68.2,67.0,30.06,SSE,164,0.0,0.0,96,0.00,,,0.00,0.00,VWS V14.01,2013-06-17 06:43:00,
2013-06-17 02:44:00,68.2,67.0,30.06,SSE,164,0.0,0.0,96,0.00,,,0.00,0.00,VWS V14.01,2013-06-17 06:44:00,
2013-06-17 02:45:00,68.2,67.1,30.05,SSE,164,0.0,0.0,96,0.00,,,0.00,0.00,VWS V14.01,2013-06-17 06:45:00,
2013-06-17 02:46:00,68.2,67.1,30.05,SSE,164,0.0,0.0,96,0.00,,,0.00,0.00,VWS V14.01,2013-06-17 06:46:00,
2013-06-17 02:47:00,68.3,67.5,30.05,SSE,164,0.0,0.0,97,0.00,,,0.00,0.00,VWS V14.01,2013-06-17 06:47:00,
2013-06-17 02:48:00,68.4,67.6,30.05,SSE,164,0.0,0.0,97,0.00,,,0.00,0.00,VWS V14.01,2013-06-17 06:48:00,
2013-06-17 02:49:00,68.4,67.6,30.06,SSE,164,0.0,0.0,97,0.00,,,0.00,0.00,VWS V14.01,2013-06-17 06:49:00,
2013-06-17 02:50:00,68.4,67.6,30.06,SSE,164,0.0,0.0,97,0.00,,,0.00,0.00,VWS V14.01,2013-06-17 06:50:00,
2013-06-17 02:51:00,68.4,67.3,30.06,SSE,164,0.0,0.0,96,0.00,,,0.00,0.00,VWS V14.01,2013-06-17 06:51:00,
2013-06-17 02:52:00,68.4,67.3,30.06,SSE,164,0.0,0.0,96,0.00,,,0.00,0.00,VWS V14.01,2013-06-17 06:52:00,
2013-06-17 02:53:00,68.3,67.2,30.06,SSE,164,0.0,0.0,96,0.00,,,0.00,0.00,VWS V14.01,2013-06-17 06:53:00,
2013-06-17 02:54:00,68.3,67.2,30.06,SSE,164,0.0,0.0,96,0.00,,,0.00,0.00,VWS V14.01,2013-06-17 06:54:00,
2013-06-17 02:55:00,68.4,67.3,30.06,SSE,164,0.0,0.0,96,0.00,,,0.00,0.00,VWS V14.01,2013-06-17 06:55:00,
2013-06-17 02:56:00,68.4,67.6,30.05,SSE,164,0.0,0.0,97,0.00,,,0.00,0.00,VWS V14.01,2013-06-17 06:56:00,
2013-06-17 02:57:00,68.4,67.6,30.05,SSE,164,0.0,0.0,97,0.00,,,0.00,0.00,VWS V14.01,2013-06-17 06:57:00,
2013-06-17 02:58:00,68.6,67.7,30.05,SSE,164,0.0,0.0,97,0.00,,,0.00,0.00,VWS V14.01,2013-06-17 06:58:00,
2013-06-17 02:59:00,68.6,67.7,30.05,SSE,164,0.0,0.0,97,0.00,,,0.00,0.00,VWS V14.01,2013-06-17 06:59:00,
2013-06-17 03:00:00,68.6,67.7,30.05,SSE,164,0.0,0.0,97,0.00,,,0.00,0.00,VWS V14.01,2013-06-17 07:00:00,
2013-06-17 03:01:00,68.6,67.7,30.05,SSE,164,0.0,0.0,97,0.00,,,0.00,0.00,VWS V14.01,2013-06-17 07:01:00,
2013-06-17 03:02:00,68.6,67.7,30.05,SSE,164,0.0,0.0,97,0.00,,,0.00,0.00,VWS V14.01,2013-06-17 07:02:00,
2013-06-17 03:03:00,68.6,67.7,30.05,SSE,164,0.0,0.0,97,0.00,,,0.00,0.00,VWS V14.01,2013-06-17 07:03:00,
2013-06-17 03:04:00,68.4,67.3,30.05,SSE,164,0.0,0.0,96,0.00,,,0.00,0.00,VWS V14.01,2013-06-17 07:04:00,
2013-06-17 03:05:00,68.4,67.3,30.05,SSE,164,0.0,0.0,96,0.00,,,0.00,0.00,VWS V14.01,2013-06-17 07:05:00,
2013-06-17 03:06:00,68.3,67.2,30.05,SSE,164,0.0,0.0,96,0.00,,,0.00,0.00,VWS V14.01,2013-06-17 07:06:00,
2013-06-17 03:07:00,68.2,67.1,30.05,SSE,164,0.0,0.0,96,0.00,,,0.00,0.00,VWS V14.01,2013-06-17 07:07:00,
2013-06-17 03:08:00,68.3,67.2,30.05,SSE,164,0.0,0.0,96,0.00,,,0.00,0.00,VWS V14.01,2013-06-17 07:08:00,
2013-06-17 03:09:00,68.3,67.2,30.05,SSE,164,0.0,0.0,96,0.00,,,0.00,0.00,VWS V14.01,2013-06-17 07:09:00,
2013-06-17 03:10:00,68.4,67.6,30.05,SSE,164,0.0,0.0,97,0.00,,,0.00,0.00,VWS V14.01,2013-06-17 07:10:00,
2013-06-17 03:11:00,68.4,67.6,30.05,SSE,164,0.0,0.0,97,0.00,,,0.00,0.00,VWS V14.01,2013-06-17 07:11:00,
2013-06-17 03:12:00,68.4,67.6,30.05,SSE,164,0.0,0.0,97,0.00,,,0.00,0.00,VWS V14.01,2013-06-17 07:12:00,
2013-06-17 03:13:00,68.6,67.7,30.05,SSE,164,0.0,0.0,97,0.00,,,0.00,0.00,VWS V14.01,2013-06-17 07:13:00,
2013-06-17 03:14:00,68.6,67.7,30.05,SSE,164,0.0,0.0,97,0.00,,,0.00,0.00,VWS V14.01,2013-06-17 07:14:00,
2013-06-17 03:15:00,68.6,67.7,30.05,SSE,164,0.0,0.0,97,0.00,,,0.00,0.00,VWS V14.01,2013-06-17 07:15:00,
2013-06-17 03:16:00,68.7,67.8,30.04,SSE,164,0.0,0.0,97,0.00,,,0.00,0.00,VWS V14.01,2013-06-17 07:16:00,
2013-06-17 03:17:00,68.7,67.8,30.04,SSE,164,0.0,0.0,97,0.00,,,0.00,0.00,VWS V14.01,2013-06-17 07:17:00,
2013-06-17 03:18:00,68.6,67.7,30.04,SSE,164,0.0,0.0,97,0.00,,,0.00,0.00,VWS V14.01,2013-06-17 07:18:00,
2013-06-17 03:19:00,68.4,67.6,30.05,SSE,164,0.0,0.0,97,0.00,,,0.00,0.00,VWS V14.01,2013-06-17 07:19:00,
2013-06-17 03:20:00,68.3,67.2,30.05,SSE,164,0.0,0.0,96,0.00,,,0.00,0.00,VWS V14.01,2013-06-17 07:20:00,
2013-06-17 03:21:00,68.3,67.2,30.05,SSE,164,0.0,0.0,96,0.00,,,0.00,0.00,VWS V14.01,2013-06-17 07:21:00,
2013-06-17 03:22:00,68.3,67.2,30.05,SSE,164,0.0,0.0,96,0.00,,,0.00,0.00,VWS V14.01,2013-06-17 07:22:00,
2013-06-17 03:23:00,68.2,67.1,30.05,SSE,164,0.0,0.0,96,0.00,,,0.00,0.00,VWS V14.01,2013-06-17 07:23:00,
2013-06-17 03:24:00,68.2,67.4,30.05,SSE,164,0.0,0.0,97,0.00,,,0.00,0.00,VWS V14.01,2013-06-17 07:24:00,
2013-06-17 03:25:00,68.2,67.4,30.05,SSE,164,0.0,0.0,97,0.00,,,0.00,0.00,VWS V14.01,2013-06-17 07:25:00,
2013-06-17 03:26:00,68.2,67.4,30.05,SSE,164,0.0,0.0,97,0.00,,,0.00,0.00,VWS V14.01,2013-06-17 07:26:00,
2013-06-17 03:27:00,68.2,67.4,30.05,SSE,164,0.0,0.0,97,0.00,,,0.00,0.00,VWS V14.01,2013-06-17 07:27:00,
2013-06-17 03:28:00,68.2,67.4,30.05,SSE,164,0.0,0.0,97,0.00,,,0.00,0.00,VWS V14.01,2013-06-17 07:28:00,
2013-06-17 03:29:00,68.2,67.4,30.05,SSE,164,0.0,0.0,97,0.00,,,0.00,0.00,VWS V14.01,2013-06-17 07:29:00,
2013-06-17 03:30:00,68.3,67.5,30.04,SSE,164,0.0,0.0,97,0.00,,,0.00,0.00,VWS V14.01,2013-06-17 07:30:00,
2013-06-17 03:31:00,68.3,67.5,30.04,SSE,164,0.0,0.0,97,0.00,,,0.00,0.00,VWS V14.01,2013-06-17 07:31:00,
2013-06-17 03:32:00,68.3,67.5,30.04,SSE,164,0.0,0.0,97,0.00,,,0.00,0.00,VWS V14.01,2013-06-17 07:32:00,
2013-06-17 03:33:00,68.4,67.6,30.04,SSE,164,0.0,0.0,97,0.00,,,0.00,0.00,VWS V14.01,2013-06-17 07:33:00,
2013-06-17 03:34:00,68.4,67.6,30.04,SSE,164,0.0,0.0,97,0.00,,,0.00,0.00,VWS V14.01,2013-06-17 07:34:00,
2013-06-17 03:35:00,68.4,67.6,30.04,SSE,164,0.0,0.0,97,0.00,,,0.00,0.00,VWS V14.01,2013-06-17 07:35:00,
2013-06-17 03:36:00,68.6,67.7,30.04,SSE,164,0.0,0.0,97,0.00,,,0.00,0.00,VWS V14.01,2013-06-17 07:36:00,
2013-06-17 03:37:00,68.6,67.7,30.04,SSE,164,0.0,0.0,97,0.00,,,0.00,0.00,VWS V14.01,2013-06-17 07:37:00,
2013-06-17 03:38:00,68.7,67.8,30.04,SSE,164,0.0,0.0,97,0.00,,,0.00,0.00,VWS V14.01,2013-06-17 07:38:00,
2013-06-17 03:39:00,68.7,67.8,30.04,SSE,164,0.0,0.0,97,0.00,,,0.00,0.00,VWS V14.01,2013-06-17 07:39:00,
2013-06-17 03:40:00,68.7,67.8,30.04,SSE,164,0.0,0.0,97,0.00,,,0.00,0.00,VWS V14.01,2013-06-17 07:40:00,
2013-06-17 03:41:00,68.7,67.8,30.04,SSE,164,0.0,0.0,97,0.00,,,0.00,0.00,VWS V14.01,2013-06-17 07:41:00,
2013-06-17 03:42:00,68.7,67.8,30.04,SSE,164,0.0,0.0,97,0.00,,,0.00,0.00,VWS V14.01,2013-06-17 07:42:00,
2013-06-17 03:43:00,68.7,67.8,30.04,SSE,164,0.0,0.0,97,0.00,,,0.00,0.00,VWS V14.01,2013-06-17 07:43:00,
2013-06-17 03:44:00,68.7,67.8,30.04,SSE,164,0.0,0.0,97,0.00,,,0.00,0.00,VWS V14.01,2013-06-17 07:44:00,
2013-06-17 03:45:00,68.7,67.8,30.04,SSE,164,0.0,0.0,97,0.00,,,0.00,0.00,VWS V14.01,2013-06-17 07:45:00,
2013-06-17 03:46:00,68.7,67.8,30.04,SSE,164,0.0,0.0,97,0.00,,,0.00,0.00,VWS V14.01,2013-06-17 07:46:00,
2013-06-17 03:47:00,68.7,67.8,30.04,SSE,164,0.0,0.0,97,0.00,,,0.00,0.00,VWS V14.01,2013-06-17 07:47:00,
2013-06-17 03:48:00,68.6,67.7,30.04,SSE,164,0.0,0.0,97,0.00,,,0.00,0.00,VWS V14.01,2013-06-17 07:48:00,
2013-06-17 03:49:00,68.6,67.7,30.04,SSE,164,0.0,0.0,97,0.00,,,0.00,0.00,VWS V14.01,2013-06-17 07:49:00,
2013-06-17 03:50:00,68.4,67.6,30.04,SSE,164,0.0,0.0,97,0.00,,,0.00,0.00,VWS V14.01,2013-06-17 07:50:00,
2013-06-17 03:51:00,68.4,67.6,30.04,SSE,164,0.0,0.0,97,0.00,,,0.00,0.00,VWS V14.01,2013-06-17 07:51:00,
2013-06-17 03:52:00,68.4,67.6,30.04,SSE,164,0.0,0.0,97,0.00,,,0.00,0.00,VWS V14.01,2013-06-17 07:52:00,
2013-06-17 03:53:00,68.3,67.5,30.04,SSE,164,0.0,0.0,97,0.00,,,0.00,0.00,VWS V14.01,2013-06-17 07:53:00,
2013-06-17 03:54:00,68.3,67.5,30.04,SSE,164,0.0,0.0,97,0.00,,,0.00,0.00,VWS V14.01,2013-06-17 07:54:00,
2013-06-17 03:55:00,68.3,67.5,30.04,SSE,164,0.0,0.0,97,0.00,,,0.00,0.00,VWS V14.01,2013-06-17 07:55:00,
2013-06-17 03:56:00,68.3,67.5,30.04,SSE,164,0.0,0.0,97,0.00,,,0.00,0.00,VWS V14.01,2013-06-17 07:56:00,
2013-06-17 03:57:00,68.3,67.5,30.04,SSE,164,0.0,0.0,97,0.00,,,0.00,0.00,VWS V14.01,2013-06-17 07:57:00,
2013-06-17 03:58:00,68.3,67.5,30.04,SSE,164,0.0,0.0,97,0.00,,,0.00,0.00,VWS V14.01,2013-06-17 07:58:00,
2013-06-17 03:59:00,68.3,67.5,30.04,SSE,164,0.0,0.0,97,0.00,,,0.00,0.00,VWS V14.01,2013-06-17 07:59:00,
2013-06-17 04:00:00,68.3,67.5,30.04,SSE,164,0.0,0.0,97,0.00,,,0.00,0.00,VWS V14.01,2013-06-17 08:00:00,
2013-06-17 04:01:00,68.3,67.5,30.04,SSE,164,0.0,0.0,97,0.00,,,0.00,0.00,VWS V14.01,2013-06-17 08:01:00,
2013-06-17 04:02:00,68.3,67.5,30.04,SSE,164,0.0,0.0,97,0.00,,,0.00,0.00,VWS V14.01,2013-06-17 08:02:00,
2013-06-17 04:03:00,68.3,67.5,30.04,SSE,164,0.0,0.0,97,0.00,,,0.00,0.00,VWS V14.01,2013-06-17 08:03:00,
2013-06-17 04:04:00,68.3,67.5,30.04,SSE,164,0.0,0.0,97,0.00,,,0.00,0.00,VWS V14.01,2013-06-17 08:04:00,
2013-06-17 04:05:00,68.3,67.5,30.04,SSE,164,0.0,0.0,97,0.00,,,0.00,0.00,VWS V14.01,2013-06-17 08:05:00,
2013-06-17 04:06:00,68.3,67.5,30.04,SSE,164,0.0,0.0,97,0.00,,,0.00,0.00,VWS V14.01,2013-06-17 08:06:00,
2013-06-17 04:07:00,68.3,67.5,30.04,SSE,164,0.0,0.0,97,0.00,,,0.00,0.00,VWS V14.01,2013-06-17 08:07:00,
2013-06-17 04:08:00,68.3,67.5,30.04,SSE,164,0.0,0.0,97,0.00,,,0.00,0.00,VWS V14.01,2013-06-17 08:08:00,
2013-06-17 04:09:00,68.3,67.5,30.04,SSE,164,0.0,0.0,97,0.00,,,0.00,0.00,VWS V14.01,2013-06-17 08:09:00,
2013-06-17 04:10:00,68.4,67.6,30.04,SSE,164,0.0,0.0,97,0.00,,,0.00,0.00,VWS V14.01,2013-06-17 08:10:00,
2013-06-17 04:11:00,68.4,67.6,30.04,SSE,164,0.0,0.0,97,0.00,,,0.00,0.00,VWS V14.01,2013-06-17 08:11:00,
2013-06-17 04:12:00,68.4,67.6,30.04,SSE,164,0.0,0.0,97,0.00,,,0.00,0.00,VWS V14.01,2013-06-17 08:12:00,
2013-06-17 04:13:00,68.4,67.6,30.04,SSE,164,0.0,0.0,97,0.00,,,0.00,0.00,VWS V14.01,2013-06-17 08:13:00,
2013-06-17 04:14:00,68.4,67.6,30.04,SSE,164,0.0,0.0,97,0.00,,,0.00,0.00,VWS V14.01,2013-06-17 08:14:00,
2013-06-17 04:15:00,68.4,67.6,30.04,SSE,164,0.0,0.0,97,0.00,,,0.00,0.00,VWS V14.01,2013-06-17 08:15:00,
2013-06-17 04:16:00,68.3,67.5,30.04,SSE,164,0.0,0.0,97,0.00,,,0.00,0.00,VWS V14.01,2013-06-17 08:16:00,
2013-06-17 04:17:00,68.3,67.5,30.04,SSE,164,0.0,0.0,97,0.00,,,0.00,0.00,VWS V14.01,2013-06-17 08:17:00,
2013-06-17 04:18:00,68.3,67.5,30.04,SSE,164,0.0,0.0,97,0.00,,,0.00,0.00,VWS V14.01,2013-06-17 08:18:00,
2013-06-17 04:19:00,68.3,67.5,30.05,SSE,164,0.0,0.0,97,0.00,,,0.00,0.00,VWS V14.01,2013-06-17 08:19:00,
2013-06-17 04:20:00,68.3,67.5,30.05,SSE,164,0.0,0.0,97,0.00,,,0.00,0.00,VWS V14.01,2013-06-17 08:20:00,
2013-06-17 04:21:00,68.3,67.5,30.05,SSE,164,0.0,0.0,97,0.00,,,0.00,0.00,VWS V14.01,2013-06-17 08:21:00,
2013-06-17 04:22:00,68.3,67.5,30.05,SSE,164,0.0,0.0,97,0.00,,,0.00,0.00,VWS V14.01,2013-06-17 08:22:00,
2013-06-17 04:23:00,68.3,67.5,30.05,SSE,164,0.0,0.0,97,0.00,,,0.00,0.00,VWS V14.01,2013-06-17 08:23:00,
2013-06-17 04:24:00,68.2,67.4,30.04,SSE,164,0.0,0.0,97,0.00,,,0.00,0.00,VWS V14.01,2013-06-17 08:24:00,
2013-06-17 04:25:00,68.2,67.4,30.04,SSE,164,0.0,0.0,97,0.00,,,0.00,0.00,VWS V14.01,2013-06-17 08:25:00,
2013-06-17 04:26:00,68.2,67.4,30.05,SSE,164,0.0,0.0,97,0.00,,,0.00,0.00,VWS V14.01,2013-06-17 08:26:00,
2013-06-17 04:27:00,68.2,67.4,30.05,SSE,164,0.0,0.0,97,0.00,,,0.00,0.00,VWS V14.01,2013-06-17 08:27:00,
2013-06-17 04:28:00,68.2,67.4,30.05,SSE,164,0.0,0.0,97,0.00,,,0.00,0.00,VWS V14.01,2013-06-17 08:28:00,
2013-06-17 04:29:00,68.2,67.4,30.05,SSE,164,0.0,0.0,97,0.00,,,0.00,0.00,VWS V14.01,2013-06-17 08:29:00,
2013-06-17 04:30:00,68.2,67.4,30.05,SSE,164,0.0,0.0,97,0.00,,,0.00,0.00,VWS V14.01,2013-06-17 08:30:00,
2013-06-17 04:31:00,68.2,67.4,30.05,SSE,164,0.0,0.0,97,0.00,,,0.00,0.00,VWS V14.01,2013-06-17 08:31:00,
2013-06-17 04:32:00,68.2,67.3,30.05,SSE,164,0.0,0.0,97,0.00,,,0.00,0.00,VWS V14.01,2013-06-17 08:32:00,
2013-06-17 04:33:00,68.2,67.4,30.05,SSE,164,0.0,0.0,97,0.00,,,0.00,0.00,VWS V14.01,2013-06-17 08:33:00,
2013-06-17 04:34:00,68.2,67.3,30.05,SSE,164,0.0,0.0,97,0.00,,,0.00,0.00,VWS V14.01,2013-06-17 08:34:00,
2013-06-17 04:35:00,68.2,67.3,30.05,SSE,164,0.0,0.0,97,0.00,,,0.00,0.00,VWS V14.01,2013-06-17 08:35:00,
2013-06-17 04:36:00,68.2,67.3,30.05,SSE,164,0.0,0.0,97,0.00,,,0.00,0.00,VWS V14.01,2013-06-17 08:36:00,
2013-06-17 04:37:00,68.2,67.3,30.05,SSE,164,0.0,0.0,97,0.00,,,0.00,0.00,VWS V14.01,2013-06-17 08:37:00,
2013-06-17 04:38:00,68.2,67.3,30.05,SSE,164,0.0,0.0,97,0.00,,,0.00,0.00,VWS V14.01,2013-06-17 08:38:00,
2013-06-17 04:39:00,68.2,67.4,30.05,SSE,164,0.0,0.0,97,0.00,,,0.00,0.00,VWS V14.01,2013-06-17 08:39:00,
2013-06-17 04:40:00,68.2,67.4,30.05,SSE,164,0.0,0.0,97,0.00,,,0.00,0.00,VWS V14.01,2013-06-17 08:40:00,
2013-06-17 04:41:00,68.2,67.4,30.05,SSE,164,0.0,0.0,97,0.00,,,0.00,0.00,VWS V14.01,2013-06-17 08:41:00,
2013-06-17 04:42:00,68.3,67.5,30.05,SSE,164,0.0,0.0,97,0.00,,,0.00,0.00,VWS V14.01,2013-06-17 08:42:00,
2013-06-17 04:43:00,68.3,67.5,30.05,SSE,164,0.0,0.0,97,0.00,,,0.00,0.00,VWS V14.01,2013-06-17 08:43:00,
2013-06-17 04:44:00,68.3,67.5,30.05,SSE,164,0.0,0.0,97,0.00,,,0.00,0.00,VWS V14.01,2013-06-17 08:44:00,
2013-06-17 04:45:00,68.3,67.5,30.05,SSE,164,0.0,0.0,97,0.00,,,0.00,0.00,VWS V14.01,2013-06-17 08:45:00,
2013-06-17 04:46:00,68.3,67.5,30.05,SSE,164,0.0,0.0,97,0.00,,,0.00,0.00,VWS V14.01,2013-06-17 08:46:00,
2013-06-17 04:47:00,68.3,67.5,30.05,SSE,164,0.0,0.0,97,0.00,,,0.00,0.00,VWS V14.01,2013-06-17 08:47:00,
2013-06-17 04:48:00,68.3,67.5,30.05,SSE,164,0.0,0.0,97,0.00,,,0.00,0.00,VWS V14.01,2013-06-17 08:48:00,
2013-06-17 04:49:00,68.3,67.5,30.05,SSE,164,0.0,0.0,97,0.00,,,0.00,0.00,VWS V14.01,2013-06-17 08:49:00,
2013-06-17 04:50:00,68.2,67.4,30.05,SSE,164,0.0,0.0,97,0.00,,,0.00,0.00,VWS V14.01,2013-06-17 08:50:00,
2013-06-17 04:51:00,68.2,67.4,30.05,SSE,164,0.0,0.0,97,0.00,,,0.00,0.00,VWS V14.01,2013-06-17 08:51:00,
2013-06-17 04:52:00,68.2,67.4,30.05,SSE,164,0.0,0.0,97,0.00,,,0.00,0.00,VWS V14.01,2013-06-17 08:52:00,
2013-06-17 04:53:00,68.2,67.4,30.05,SSE,164,0.0,0.0,97,0.00,,,0.00,0.00,VWS V14.01,2013-06-17 08:53:00,
2013-06-17 04:54:00,68.2,67.4,30.05,SSE,164,0.0,0.0,97,0.00,,,0.00,0.00,VWS V14.01,2013-06-17 08:54:00,
2013-06-17 04:55:00,68.2,67.4,30.05,SSE,164,0.0,0.0,97,0.00,,,0.00,0.00,VWS V14.01,2013-06-17 08:55:00,
2013-06-17 04:56:00,68.2,67.3,30.05,SSE,164,0.0,0.0,97,0.00,,,0.00,0.00,VWS V14.01,2013-06-17 08:56:00,
2013-06-17 04:57:00,68.2,67.4,30.05,SSE,164,0.0,0.0,97,0.00,,,0.00,0.00,VWS V14.01,2013-06-17 08:57:00,
2013-06-17 04:58:00,68.2,67.4,30.05,SSE,164,0.0,0.0,97,0.00,,,0.00,0.00,VWS V14.01,2013-06-17 08:58:00,
2013-06-17 04:59:00,68.2,67.4,30.05,SSE,164,0.0,0.0,97,0.00,,,0.00,0.00,VWS V14.01,2013-06-17 08:59:00,
2013-06-17 05:00:00,68.2,67.4,30.05,SSE,164,0.0,0.0,97,0.00,,,0.00,0.00,VWS V14.01,2013-06-17 09:00:00,
2013-06-17 05:01:00,68.2,67.3,30.05,SSE,164,0.0,0.0,97,0.00,,,0.00,0.00,VWS V14.01,2013-06-17 09:01:00,
2013-06-17 05:02:00,68.2,67.3,30.05,SSE,164,0.0,0.0,97,0.00,,,0.00,0.00,VWS V14.01,2013-06-17 09:02:00,
2013-06-17 05:03:00,68.2,67.3,30.05,SSE,164,0.0,0.0,97,0.00,,,0.00,0.00,VWS V14.01,2013-06-17 09:03:00,
2013-06-17 05:04:00,68.1,67.2,30.05,SSE,164,0.0,0.0,97,0.00,,,0.00,0.00,VWS V14.01,2013-06-17 09:04:00,
2013-06-17 05:05:00,68.2,67.3,30.05,SSE,164,0.0,0.0,97,0.00,,,0.00,0.00,VWS V14.01,2013-06-17 09:05:00,
2013-06-17 05:06:00,68.1,67.2,30.05,SSE,164,0.0,0.0,97,0.00,,,0.00,0.00,VWS V14.01,2013-06-17 09:06:00,
2013-06-17 05:07:00,68.1,67.2,30.05,SSE,164,0.0,0.0,97,0.00,,,0.00,0.00,VWS V14.01,2013-06-17 09:07:00,
2013-06-17 05:08:00,68.2,67.3,30.05,SSE,164,0.0,0.0,97,0.00,,,0.00,0.00,VWS V14.01,2013-06-17 09:08:00,
2013-06-17 05:09:00,68.2,67.3,30.05,SSE,164,0.0,0.0,97,0.00,,,0.00,0.00,VWS V14.01,2013-06-17 09:09:00,
2013-06-17 05:10:00,68.2,67.3,30.05,SSE,164,0.0,0.0,97,0.00,,,0.00,0.00,VWS V14.01,2013-06-17 09:10:00,
2013-06-17 05:11:00,68.2,67.3,30.05,SSE,164,0.0,0.0,97,0.00,,,0.00,0.00,VWS V14.01,2013-06-17 09:11:00,
2013-06-17 05:12:00,68.1,67.2,30.05,SSE,164,0.0,0.0,97,0.00,,,0.00,0.00,VWS V14.01,2013-06-17 09:12:00,
2013-06-17 05:13:00,68.1,67.2,30.05,SSE,164,0.0,0.0,97,0.00,,,0.00,0.00,VWS V14.01,2013-06-17 09:13:00,
2013-06-17 05:14:00,68.1,67.2,30.05,SSE,164,0.0,0.0,97,0.00,,,0.00,0.00,VWS V14.01,2013-06-17 09:14:00,
2013-06-17 05:15:00,67.9,67.1,30.05,SSE,164,0.0,0.0,97,0.00,,,0.00,0.00,VWS V14.01,2013-06-17 09:15:00,
2013-06-17 05:16:00,67.9,67.1,30.05,SSE,164,0.0,0.0,97,0.00,,,0.00,0.00,VWS V14.01,2013-06-17 09:16:00,
2013-06-17 05:21:00,68.1,67.2,30.05,SSE,164,0.0,0.0,97,0.00,,,0.00,0.00,VWS V14.01,2013-06-17 09:21:00,
2013-06-17 05:26:00,68.2,67.3,30.04,SSE,164,0.0,0.0,97,0.00,,,0.00,0.00,VWS V14.01,2013-06-17 09:26:00,
2013-06-17 05:31:00,68.1,67.2,30.04,SSE,164,0.0,0.0,97,0.00,,,0.00,0.00,VWS V14.01,2013-06-17 09:31:00,
2013-06-17 05:36:00,67.8,67.0,30.04,SSE,164,0.0,0.0,97,0.00,,,0.00,0.00,VWS V14.01,2013-06-17 09:36:00,
2013-06-17 05:41:00,67.8,66.9,30.05,SSE,164,0.0,0.0,97,0.00,,,0.00,0.00,VWS V14.01,2013-06-17 09:41:00,
2013-06-17 05:46:00,67.8,66.9,30.05,SSE,164,0.0,0.0,97,0.00,,,0.00,0.00,VWS V14.01,2013-06-17 09:46:00,
2013-06-17 05:51:00,67.7,66.8,30.05,SSE,164,0.0,0.0,97,0.00,,,0.00,0.00,VWS V14.01,2013-06-17 09:51:00,
2013-06-17 05:56:00,67.7,66.8,30.05,SSE,164,0.0,0.0,97,0.00,,,0.00,0.00,VWS V14.01,2013-06-17 09:56:00,
2013-06-17 06:01:00,67.8,66.9,30.05,SSE,164,0.0,0.0,97,0.00,,,0.00,0.00,VWS V14.01,2013-06-17 10:01:00,
2013-06-17 06:06:00,67.8,66.9,30.05,SSE,164,0.0,0.0,97,0.00,,,0.00,0.00,VWS V14.01,2013-06-17 10:06:00,
2013-06-17 06:11:00,67.7,66.8,30.04,SSE,164,0.0,0.0,97,0.00,,,0.00,0.00,VWS V14.01,2013-06-17 10:11:00,
2013-06-17 06:16:00,67.7,66.8,30.04,SSE,164,0.0,0.0,97,0.00,,,0.00,0.00,VWS V14.01,2013-06-17 10:16:00,
2013-06-17 06:21:00,67.7,66.8,30.04,SSE,164,0.0,0.0,97,0.00,,,0.00,5.00,VWS V14.01,2013-06-17 10:21:00,
2013-06-17 06:26:00,67.6,66.7,30.05,SSE,164,0.0,0.0,97,0.00,,,0.00,7.00,VWS V14.01,2013-06-17 10:26:00,
2013-06-17 06:31:00,67.6,67.0,30.04,SSE,164,0.0,0.0,98,0.00,,,0.00,9.00,VWS V14.01,2013-06-17 10:31:00,
2013-06-17 06:36:00,67.6,67.0,30.04,SSE,164,0.0,0.0,98,0.00,,,0.00,11.00,VWS V14.01,2013-06-17 10:36:00,
2013-06-17 06:41:00,67.6,67.0,30.04,SSE,164,0.0,0.0,98,0.00,,,0.00,12.00,VWS V14.01,2013-06-17 10:41:00,
2013-06-17 06:46:00,67.7,67.1,30.04,SSE,164,0.0,0.0,98,0.00,,,0.00,14.00,VWS V14.01,2013-06-17 10:46:00,
2013-06-17 06:51:00,67.8,66.9,30.04,SSE,164,0.0,0.0,97,0.00,,,0.00,16.00,VWS V14.01,2013-06-17 10:51:00,
2013-06-17 06:56:00,67.8,67.0,30.04,SSE,164,0.0,0.0,97,0.00,,,0.00,18.00,VWS V14.01,2013-06-17 10:56:00,
2013-06-17 07:01:00,68.1,67.5,30.05,SSE,164,0.0,0.0,98,0.00,,,0.00,19.00,VWS V14.01,2013-06-17 11:01:00,
2013-06-17 07:06:00,68.2,67.7,30.05,SSE,164,0.0,0.0,98,0.00,,,0.00,21.00,VWS V14.01,2013-06-17 11:06:00,
2013-06-17 07:11:00,68.3,67.8,30.05,SSE,164,0.0,0.0,98,0.00,,,0.00,23.00,VWS V14.01,2013-06-17 11:11:00,
2013-06-17 07:16:00,68.6,68.0,30.05,SSE,164,0.0,0.0,98,0.00,,,0.00,25.00,VWS V14.01,2013-06-17 11:16:00,
2013-06-17 07:21:00,68.8,68.2,30.05,WNW,287,0.0,0.0,98,0.00,,,0.00,30.00,VWS V14.01,2013-06-17 11:21:00,
2013-06-17 07:26:00,69.1,68.5,30.05,WNW,287,0.0,0.0,98,0.00,,,0.00,30.00,VWS V14.01,2013-06-17 11:26:00,
2013-06-17 07:31:00,69.4,68.9,30.05,WNW,287,0.0,0.0,98,0.00,,,0.00,26.00,VWS V14.01,2013-06-17 11:31:00,
2013-06-17 07:36:00,69.8,69.2,30.05,WNW,287,0.0,0.0,98,0.00,,,0.00,25.00,VWS V14.01,2013-06-17 11:36:00,
2013-06-17 07:41:00,69.8,69.3,30.05,WNW,287,0.0,0.0,98,0.00,,,0.00,30.00,VWS V14.01,2013-06-17 11:41:00,
2013-06-17 07:46:00,70.1,69.5,30.05,WNW,287,0.0,0.0,98,0.00,,,0.00,32.00,VWS V14.01,2013-06-17 11:46:00,
2013-06-17 07:51:00,70.3,69.8,30.06,WNW,287,0.0,0.0,98,0.00,,,0.00,35.00,VWS V14.01,2013-06-17 11:51:00,
2013-06-17 07:56:00,70.8,70.3,30.06,WNW,287,0.0,0.0,98,0.00,,,0.00,54.00,VWS V14.01,2013-06-17 11:56:00,
2013-06-17 08:01:00,71.4,70.9,30.06,WNW,287,0.0,0.0,98,0.00,,,0.00,42.00,VWS V14.01,2013-06-17 12:01:00,
2013-06-17 08:05:00,72.2,71.7,30.06,WNW,287,0.0,0.0,98,0.00,,,0.00,44.00,VWS V14.01,2013-06-17 12:05:00,
2013-06-17 08:10:00,73.2,72.7,30.06,WNW,287,0.0,0.0,98,0.00,,,0.00,46.00,VWS V14.01,2013-06-17 12:10:00,
2013-06-17 08:15:00,74.1,73.2,30.06,WNW,287,0.0,1.1,97,0.00,,,0.00,56.00,VWS V14.01,2013-06-17 12:15:00,
2013-06-17 08:20:00,74.8,73.5,30.06,SW,224,0.0,0.0,96,0.00,,,0.00,42.00,VWS V14.01,2013-06-17 12:20:00,
2013-06-17 08:25:00,75.2,74.0,30.06,SW,225,0.0,0.0,96,0.00,,,0.00,53.00,VWS V14.01,2013-06-17 12:25:00,
2013-06-17 08:30:00,75.8,74.2,30.06,ESE,113,0.0,0.0,95,0.00,,,0.00,74.00,VWS V14.01,2013-06-17 12:30:00,
2013-06-17 08:35:00,76.8,74.2,30.07,SW,218,2.2,2.2,92,0.00,,,0.00,69.00,VWS V14.01,2013-06-17 12:35:00,
2013-06-17 08:40:00,77.2,74.1,30.06,South,177,1.1,1.1,90,0.00,,,0.00,51.00,VWS V14.01,2013-06-17 12:40:00,
2013-06-17 08:45:00,77.6,74.1,30.06,NW,304,0.0,1.1,89,0.00,,,0.00,49.00,VWS V14.01,2013-06-17 12:45:00,
2013-06-17 08:50:00,77.8,74.3,30.06,NW,305,0.0,0.0,89,0.00,,,0.00,49.00,VWS V14.01,2013-06-17 12:50:00,
2013-06-17 08:55:00,78.2,73.7,30.06,West,279,0.0,1.1,86,0.00,,,0.00,54.00,VWS V14.01,2013-06-17 12:55:00,
2013-06-17 09:00:00,78.4,74.3,30.05,NW,308,0.0,0.0,87,0.00,,,0.00,62.00,VWS V14.01,2013-06-17 13:00:00,
2013-06-17 09:05:00,78.7,74.1,30.06,NW,308,3.3,3.3,86,0.00,,,0.00,86.00,VWS V14.01,2013-06-17 13:05:00,
2013-06-17 09:10:00,78.9,74.4,30.06,South,180,2.2,2.2,86,0.00,,,0.00,77.00,VWS V14.01,2013-06-17 13:10:00,
2013-06-17 09:15:00,79.3,74.4,30.05,SSW,211,4.4,5.5,85,0.00,,,0.00,76.00,VWS V14.01,2013-06-17 13:15:00,
2013-06-17 09:20:00,79.8,74.8,30.05,WSW,240,3.3,4.4,85,0.00,,,0.00,84.00,VWS V14.01,2013-06-17 13:20:00,
2013-06-17 09:25:00,79.8,74.6,30.05,NW,304,2.2,2.2,84,0.00,,,0.00,60.00,VWS V14.01,2013-06-17 13:25:00,
2013-06-17 09:30:00,79.6,74.3,30.05,SW,222,4.4,4.4,84,0.00,,,0.00,67.00,VWS V14.01,2013-06-17 13:30:00,
2013-06-17 09:35:00,79.7,74.8,30.05,SSW,204,0.0,3.3,85,0.00,,,0.00,70.00,VWS V14.01,2013-06-17 13:35:00,
2013-06-17 09:40:00,80.2,75.2,30.05,South,189,4.4,4.4,85,0.00,,,0.00,76.00,VWS V14.01,2013-06-17 13:40:00,
2013-06-17 09:45:00,80.7,75.4,30.04,SW,225,0.0,1.1,84,0.00,,,0.00,63.00,VWS V14.01,2013-06-17 13:45:00,
2013-06-17 09:50:00,80.9,74.9,30.04,SSW,204,4.4,4.4,82,0.00,,,0.00,72.00,VWS V14.01,2013-06-17 13:50:00,
2013-06-17 09:55:00,81.4,74.3,30.04,South,171,3.3,5.5,79,0.00,,,0.00,70.00,VWS V14.01,2013-06-17 13:55:00,
2013-06-17 10:00:00,81.7,74.1,30.05,South,175,1.1,2.2,78,0.00,,,0.00,79.00,VWS V14.01,2013-06-17 14:00:00,
2013-06-17 10:05:00,81.8,74.7,30.04,SW,220,0.0,1.1,79,0.00,,,0.00,109.00,VWS V14.01,2013-06-17 14:05:00,
2013-06-17 10:10:00,82.1,73.7,30.04,West,265,0.0,0.0,76,0.00,,,0.00,146.00,VWS V14.01,2013-06-17 14:10:00,
2013-06-17 10:15:00,82.6,73.4,30.04,South,174,2.2,5.5,74,0.00,,,0.00,116.00,VWS V14.01,2013-06-17 14:15:00,
2013-06-17 10:20:00,82.7,74.3,30.04,NW,304,2.2,2.2,76,0.00,,,0.00,104.00,VWS V14.01,2013-06-17 14:20:00,
2013-06-17 10:25:00,82.8,73.2,30.04,SW,229,3.3,5.5,73,0.00,,,0.00,86.00,VWS V14.01,2013-06-17 14:25:00,
2013-06-17 10:30:00,82.8,73.2,30.03,West,260,4.4,6.6,73,0.00,,,0.00,81.00,VWS V14.01,2013-06-17 14:30:00,
2013-06-17 10:35:00,82.9,73.8,30.03,South,180,2.2,2.2,74,0.00,,,0.00,83.00,VWS V14.01,2013-06-17 14:35:00,
2013-06-17 10:40:00,83.1,73.5,30.03,SSE,154,3.3,4.4,73,0.00,,,0.00,84.00,VWS V14.01,2013-06-17 14:40:00,
2013-06-17 10:45:00,83.3,73.0,30.03,SW,217,0.0,4.4,71,0.00,,,0.00,84.00,VWS V14.01,2013-06-17 14:45:00,
2013-06-17 10:50:00,83.4,73.5,30.03,WSW,239,2.2,4.4,72,0.00,,,0.00,88.00,VWS V14.01,2013-06-17 14:50:00,
2013-06-17 10:55:00,83.8,73.9,30.03,SW,230,0.0,3.3,72,0.00,,,0.00,91.00,VWS V14.01,2013-06-17 14:55:00,
2013-06-17 11:00:00,83.8,73.3,30.03,South,183,2.2,2.2,71,0.00,,,0.00,109.00,VWS V14.01,2013-06-17 15:00:00,
2013-06-17 11:05:00,84.2,73.7,30.03,South,186,3.3,4.4,71,0.00,,,0.00,188.00,VWS V14.01,2013-06-17 15:05:00,
2013-06-17 11:10:00,84.2,73.7,30.03,SSE,160,4.4,5.5,71,0.00,,,0.00,267.00,VWS V14.01,2013-06-17 15:10:00,
2013-06-17 11:15:00,84.4,74.8,30.04,SSW,200,5.5,5.5,73,0.00,,,0.00,274.00,VWS V14.01,2013-06-17 15:15:00,
2013-06-17 11:20:00,84.8,73.6,30.04,South,183,4.4,4.4,69,0.00,,,0.00,765.00,VWS V14.01,2013-06-17 15:20:00,
2013-06-17 11:25:00,85.2,73.1,30.04,South,181,1.1,1.1,67,0.00,,,0.00,267.00,VWS V14.01,2013-06-17 15:25:00,
2013-06-17 11:30:00,84.9,74.1,30.04,WSW,254,0.0,1.1,70,0.00,,,0.00,348.00,VWS V14.01,2013-06-17 15:30:00,
2013-06-17 11:35:00,85.3,74.0,30.04,South,191,3.3,3.3,69,0.00,,,0.00,292.00,VWS V14.01,2013-06-17 15:35:00,
2013-06-17 11:40:00,85.2,73.0,30.03,SSW,201,4.4,6.6,67,0.00,,,0.00,272.00,VWS V14.01,2013-06-17 15:40:00,
2013-06-17 11:45:00,85.2,73.5,30.04,ESE,104,3.3,3.3,68,0.00,,,0.00,520.00,VWS V14.01,2013-06-17 15:45:00,
2013-06-17 11:50:00,86.2,72.6,30.03,SSW,206,2.2,2.2,64,0.00,,,0.00,814.00,VWS V14.01,2013-06-17 15:50:00,
2013-06-17 11:55:00,86.3,73.2,30.03,South,181,6.6,6.6,65,0.00,,,0.00,826.00,VWS V14.01,2013-06-17 15:55:00,
2013-06-17 12:00:00,86.7,73.5,30.03,SW,217,5.5,5.5,65,0.00,,,0.00,831.00,VWS V14.01,2013-06-17 16:00:00,
2013-06-17 12:05:00,87.1,74.3,30.03,SW,218,0.0,2.2,66,0.00,,,0.00,833.00,VWS V14.01,2013-06-17 16:05:00,
2013-06-17 12:10:00,87.4,75.2,30.03,SW,214,0.0,1.1,67,0.00,,,0.00,891.00,VWS V14.01,2013-06-17 16:10:00,
2013-06-17 12:15:00,87.8,74.6,30.03,SSE,156,0.0,2.2,65,0.00,,,0.00,933.00,VWS V14.01,2013-06-17 16:15:00,
2013-06-17 12:20:00,87.8,74.1,30.03,SW,218,0.0,2.2,64,0.00,,,0.00,988.00,VWS V14.01,2013-06-17 16:20:00,
2013-06-17 12:25:00,87.2,73.6,30.03,South,179,0.0,2.2,64,0.00,,,0.00,345.00,VWS V14.01,2013-06-17 16:25:00,
2013-06-17 12:30:00,86.9,74.2,30.03,South,180,2.2,4.4,66,0.00,,,0.00,336.00,VWS V14.01,2013-06-17 16:30:00,
2013-06-17 12:35:00,86.3,73.7,30.03,SSE,150,0.0,2.2,66,0.00,,,0.00,200.00,VWS V14.01,2013-06-17 16:35:00,
2013-06-17 12:40:00,85.9,73.7,30.03,SE,125,0.0,3.3,67,0.00,,,0.00,239.00,VWS V14.01,2013-06-17 16:40:00,
2013-06-17 12:45:00,85.9,73.7,30.03,South,185,2.2,2.2,67,0.00,,,0.00,960.00,VWS V14.01,2013-06-17 16:45:00,
2013-06-17 12:50:00,86.6,73.4,30.02,SE,127,0.0,0.0,65,0.00,,,0.00,383.00,VWS V14.01,2013-06-17 16:50:00,
2013-06-17 12:55:00,87.2,74.0,30.02,SSE,148,2.2,2.2,65,0.00,,,0.00,434.00,VWS V14.01,2013-06-17 16:55:00,
2013-06-17 13:00:00,87.3,74.2,30.02,SSE,147,1.1,1.1,65,0.00,,,0.00,485.00,VWS V14.01,2013-06-17 17:00:00,
2013-06-17 13:05:00,87.9,74.3,30.02,South,178,2.2,4.4,64,0.00,,,0.00,960.00,VWS V14.01,2013-06-17 17:05:00,
2013-06-17 13:10:00,88.4,74.7,30.02,WSW,249,0.0,1.1,64,0.00,,,0.00,953.00,VWS V14.01,2013-06-17 17:10:00,
2013-06-17 13:15:00,88.7,75.4,30.02,ESE,119,3.3,6.6,65,0.00,,,0.00,974.00,VWS V14.01,2013-06-17 17:15:00,
2013-06-17 13:20:00,88.2,74.0,30.02,NW,314,3.3,3.3,63,0.00,,,0.00,923.00,VWS V14.01,2013-06-17 17:20:00,
2013-06-17 13:25:00,87.8,73.6,30.02,South,171,3.3,4.4,63,0.00,,,0.00,250.00,VWS V14.01,2013-06-17 17:25:00,
2013-06-17 13:30:00,86.9,74.2,30.02,South,175,0.0,1.1,66,0.00,,,0.00,230.00,VWS V14.01,2013-06-17 17:30:00,
2013-06-17 13:35:00,86.2,74.0,30.02,West,260,2.2,4.4,67,0.00,,,0.00,371.00,VWS V14.01,2013-06-17 17:35:00,
2013-06-17 13:40:00,86.6,73.8,30.02,West,274,1.1,2.2,66,0.00,,,0.00,292.00,VWS V14.01,2013-06-17 17:40:00,
2013-06-17 13:45:00,86.6,74.7,30.02,SSE,159,2.2,2.2,68,0.00,,,0.00,350.00,VWS V14.01,2013-06-17 17:45:00,
2013-06-17 13:50:00,88.1,77.5,30.01,South,175,0.0,1.1,71,0.00,,,0.00,1032.00,VWS V14.01,2013-06-17 17:50:00,
2013-06-17 13:55:00,87.9,74.7,30.02,SSW,206,5.5,6.6,65,0.00,,,0.00,243.00,VWS V14.01,2013-06-17 17:55:00,
2013-06-17 14:00:00,87.4,76.0,30.02,SSW,211,3.3,3.3,69,0.00,,,0.00,264.00,VWS V14.01,2013-06-17 18:00:00,
2013-06-17 14:05:00,87.2,74.9,30.01,South,185,2.2,4.4,67,0.00,,,0.00,183.00,VWS V14.01,2013-06-17 18:05:00,
2013-06-17 14:10:00,86.9,74.7,30.02,SSW,193,4.4,4.4,67,0.00,,,0.00,176.00,VWS V14.01,2013-06-17 18:10:00,
2013-06-17 14:15:00,86.2,75.2,30.02,SSW,210,1.1,3.3,70,0.00,,,0.00,141.00,VWS V14.01,2013-06-17 18:15:00,
2013-06-17 14:20:00,83.8,75.9,30.02,NE,39,1.1,6.6,77,0.01,,,0.01,127.00,VWS V14.01,2013-06-17 18:20:00,
2013-06-17 14:25:00,80.8,75.9,30.01,SW,235,0.0,0.0,85,0.03,,,0.03,100.00,VWS V14.01,2013-06-17 18:25:00,
2013-06-17 14:30:00,79.4,75.6,30.01,WSW,258,0.0,1.1,88,0.04,,,0.04,200.00,VWS V14.01,2013-06-17 18:30:00,
2013-06-17 14:35:00,79.3,75.5,30.01,West,259,0.0,0.0,88,0.04,,,0.04,490.00,VWS V14.01,2013-06-17 18:35:00,
2013-06-17 14:40:00,80.4,77.6,30.00,West,259,0.0,0.0,91,0.04,,,0.04,373.00,VWS V14.01,2013-06-17 18:40:00,
2013-06-17 14:45:00,81.8,78.6,30.00,West,259,0.0,0.0,90,0.04,,,0.04,898.00,VWS V14.01,2013-06-17 18:45:00,
2013-06-17 14:50:00,83.2,79.3,30.00,West,259,0.0,0.0,88,0.04,,,0.04,517.00,VWS V14.01,2013-06-17 18:50:00,
2013-06-17 14:55:00,84.2,78.9,30.00,West,259,0.0,0.0,84,0.04,,,0.04,763.00,VWS V14.01,2013-06-17 18:55:00,
2013-06-17 15:00:00,85.1,78.9,30.00,South,171,0.0,0.0,82,0.04,,,0.04,833.00,VWS V14.01,2013-06-17 19:00:00,
2013-06-17 15:05:00,85.6,78.7,29.99,South,171,0.0,0.0,80,0.04,,,0.04,882.00,VWS V14.01,2013-06-17 19:05:00,
2013-06-17 15:10:00,86.4,78.4,29.99,SW,218,0.0,1.1,77,0.04,,,0.04,851.00,VWS V14.01,2013-06-17 19:10:00,
2013-06-17 15:15:00,86.8,78.0,29.99,SW,227,2.2,2.2,75,0.04,,,0.04,858.00,VWS V14.01,2013-06-17 19:15:00,
2013-06-17 15:20:00,87.3,78.5,29.98,ENE,74,2.2,2.2,75,0.03,,,0.04,861.00,VWS V14.01,2013-06-17 19:20:00,
2013-06-17 15:25:00,87.7,78.3,29.98,SE,143,0.0,1.1,74,0.01,,,0.04,870.00,VWS V14.01,2013-06-17 19:25:00,
2013-06-17 15:30:00,87.9,78.2,29.98,SE,124,4.4,4.4,73,0.01,,,0.04,856.00,VWS V14.01,2013-06-17 19:30:00,
2013-06-17 15:35:00,87.3,78.9,29.97,ENE,75,0.0,1.1,76,0.00,,,0.04,202.00,VWS V14.01,2013-06-17 19:35:00,
2013-06-17 15:40:00,86.2,77.4,29.97,SE,128,0.0,1.1,75,0.00,,,0.04,904.00,VWS V14.01,2013-06-17 19:40:00,
2013-06-17 15:45:00,86.7,77.0,29.97,SW,223,1.1,1.1,73,0.00,,,0.04,162.00,VWS V14.01,2013-06-17 19:45:00,
2013-06-17 15:50:00,86.3,77.9,29.97,East,81,0.0,0.0,76,0.00,,,0.04,817.00,VWS V14.01,2013-06-17 19:50:00,
2013-06-17 15:55:00,86.3,76.7,29.97,SSE,155,2.2,4.4,73,0.00,,,0.04,262.00,VWS V14.01,2013-06-17 19:55:00,
2013-06-17 16:00:00,86.8,79.1,29.97,SSE,162,1.1,2.2,78,0.00,,,0.04,833.00,VWS V14.01,2013-06-17 20:00:00,
2013-06-17 16:05:00,86.9,78.5,29.97,SE,128,1.1,1.1,76,0.00,,,0.04,768.00,VWS V14.01,2013-06-17 20:05:00,
2013-06-17 16:10:00,87.1,77.3,29.97,SW,220,2.2,4.4,73,0.00,,,0.04,271.00,VWS V14.01,2013-06-17 20:10:00,
2013-06-17 16:15:00,87.3,77.6,29.97,NE,54,2.2,2.2,73,0.00,,,0.04,714.00,VWS V14.01,2013-06-17 20:15:00,
2013-06-17 16:20:00,86.7,75.7,29.96,SSW,204,1.1,6.6,70,0.00,,,0.04,107.00,VWS V14.01,2013-06-17 20:20:00,
2013-06-17 16:25:00,85.4,76.2,29.96,ESE,112,0.0,2.2,74,0.00,,,0.04,91.00,VWS V14.01,2013-06-17 20:25:00,
2013-06-17 16:30:00,84.7,76.7,29.96,ESE,108,5.5,7.7,77,0.00,,,0.04,127.00,VWS V14.01,2013-06-17 20:30:00,
2013-06-17 16:35:00,84.4,76.1,29.96,South,175,2.2,4.4,76,0.01,,,0.05,318.00,VWS V14.01,2013-06-17 20:35:00,
2013-06-17 16:40:00,84.1,76.8,29.96,SSW,207,0.0,2.2,79,0.01,,,0.05,325.00,VWS V14.01,2013-06-17 20:40:00,
2013-06-17 16:45:00,85.1,77.0,29.96,West,272,0.0,1.1,77,0.01,,,0.05,705.00,VWS V14.01,2013-06-17 20:45:00,
2013-06-17 16:50:00,85.8,76.1,29.96,South,180,5.5,7.7,73,0.01,,,0.05,621.00,VWS V14.01,2013-06-17 20:50:00,
2013-06-17 16:55:00,86.4,77.2,29.96,SSW,206,3.3,3.3,74,0.01,,,0.05,589.00,VWS V14.01,2013-06-17 20:55:00,
2013-06-17 17:00:00,86.7,77.0,29.96,SSE,152,0.0,0.0,73,0.01,,,0.05,573.00,VWS V14.01,2013-06-17 21:00:00,
2013-06-17 17:05:00,86.8,76.7,29.96,SSE,167,0.0,1.1,72,0.01,,,0.05,547.00,VWS V14.01,2013-06-17 21:05:00,
2013-06-17 17:10:00,86.8,77.2,29.96,SW,218,3.3,4.4,73,0.01,,,0.05,417.00,VWS V14.01,2013-06-17 21:10:00,
2013-06-17 17:15:00,86.2,75.2,29.96,SE,144,2.2,4.4,70,0.01,,,0.05,364.00,VWS V14.01,2013-06-17 21:15:00,
2013-06-17 17:20:00,85.7,74.8,29.96,SSE,165,0.0,1.1,70,0.01,,,0.05,311.00,VWS V14.01,2013-06-17 21:20:00,
2013-06-17 17:25:00,85.3,75.3,29.96,SE,140,0.0,1.1,72,0.01,,,0.05,171.00,VWS V14.01,2013-06-17 21:25:00,
2013-06-17 17:30:00,85.1,74.6,29.96,SSW,198,1.1,2.2,71,0.01,,,0.05,149.00,VWS V14.01,2013-06-17 21:30:00,
2013-06-17 17:35:00,84.7,75.4,29.96,SSW,205,0.0,1.1,74,0.00,,,0.05,151.00,VWS V14.01,2013-06-17 21:35:00,
2013-06-17 17:40:00,84.4,75.7,29.96,SSE,151,1.1,2.2,75,0.00,,,0.05,158.00,VWS V14.01,2013-06-17 21:40:00,
2013-06-17 17:45:00,84.3,75.6,29.96,South,169,0.0,1.1,75,0.00,,,0.05,148.00,VWS V14.01,2013-06-17 21:45:00,
2013-06-17 17:50:00,84.1,75.7,29.97,South,173,2.2,3.3,76,0.00,,,0.05,135.00,VWS V14.01,2013-06-17 21:50:00,
2013-06-17 17:55:00,83.8,75.5,29.97,SW,235,2.2,3.3,76,0.00,,,0.05,118.00,VWS V14.01,2013-06-17 21:55:00,
2013-06-17 18:00:00,83.8,75.8,29.97,East,95,0.0,4.4,77,0.00,,,0.05,109.00,VWS V14.01,2013-06-17 22:00:00,
2013-06-17 18:05:00,83.6,75.2,29.97,SSW,206,1.1,4.4,76,0.00,,,0.05,97.00,VWS V14.01,2013-06-17 22:05:00,
2013-06-17 18:10:00,83.3,75.4,29.97,SSW,196,1.1,1.1,77,0.00,,,0.05,90.00,VWS V14.01,2013-06-17 22:10:00,
2013-06-17 18:15:00,83.2,75.2,29.97,South,175,1.1,4.4,77,0.00,,,0.05,86.00,VWS V14.01,2013-06-17 22:15:00,
2013-06-17 18:20:00,83.1,75.5,29.97,SW,214,3.3,3.3,78,0.00,,,0.05,81.00,VWS V14.01,2013-06-17 22:20:00,
2013-06-17 18:25:00,82.9,75.0,29.98,South,169,3.3,3.3,77,0.00,,,0.05,56.00,VWS V14.01,2013-06-17 22:25:00,
2013-06-17 18:30:00,82.7,75.1,29.99,SSE,150,2.2,4.4,78,0.00,,,0.05,39.00,VWS V14.01,2013-06-17 22:30:00,
2013-06-17 18:35:00,82.6,75.4,29.99,SSE,158,0.0,3.3,79,0.00,,,0.05,37.00,VWS V14.01,2013-06-17 22:35:00,
2013-06-17 18:40:00,82.4,75.7,29.99,South,187,1.1,3.3,80,0.00,,,0.05,25.00,VWS V14.01,2013-06-17 22:40:00,
2013-06-17 18:45:00,82.3,75.9,29.99,South,191,7.7,7.7,81,0.00,,,0.05,18.00,VWS V14.01,2013-06-17 22:45:00,
2013-06-17 18:50:00,82.1,76.4,29.99,North,353,2.2,4.4,83,0.00,,,0.05,14.00,VWS V14.01,2013-06-17 22:50:00,
2013-06-17 18:55:00,81.3,76.4,29.99,SSW,206,1.1,3.3,85,0.00,,,0.05,12.00,VWS V14.01,2013-06-17 22:55:00,
2013-06-17 19:00:00,80.8,76.3,29.99,South,179,0.0,0.0,86,0.01,,,0.06,11.00,VWS V14.01,2013-06-17 23:00:00,
2013-06-17 19:05:00,80.4,76.2,29.99,SSW,193,0.0,0.0,87,0.01,,,0.06,9.00,VWS V14.01,2013-06-17 23:05:00,
2013-06-17 19:10:00,79.9,76.4,29.99,SSW,204,0.0,1.1,89,0.02,,,0.07,7.00,VWS V14.01,2013-06-17 23:10:00,
2013-06-17 19:15:00,79.4,76.3,29.99,SW,216,1.1,3.3,90,0.02,,,0.07,5.00,VWS V14.01,2013-06-17 23:15:00,
2013-06-17 19:20:00,79.2,76.6,29.99,SSE,154,0.0,1.1,92,0.03,,,0.08,0.00,VWS V14.01,2013-06-17 23:20:00,
2013-06-17 19:25:00,78.9,76.8,29.99,ESE,112,0.0,1.1,93,0.03,,,0.08,0.00,VWS V14.01,2013-06-17 23:25:00,
2013-06-17 19:30:00,78.8,76.6,29.99,SSE,163,0.0,3.3,93,0.04,,,0.09,0.00,VWS V14.01,2013-06-17 23:30:00,
2013-06-17 19:35:00,78.7,76.8,29.98,SSW,199,0.0,0.0,94,0.04,,,0.09,0.00,VWS V14.01,2013-06-17 23:35:00,
2013-06-17 19:40:00,78.4,76.6,29.98,SSE,157,1.1,1.1,94,0.05,,,0.10,0.00,VWS V14.01,2013-06-17 23:40:00,
2013-06-17 19:45:00,78.2,76.3,29.98,South,179,5.5,5.5,94,0.06,,,0.11,0.00,VWS V14.01,2013-06-17 23:45:00,
2013-06-17 19:50:00,77.8,76.0,29.98,South,169,3.3,3.3,94,0.06,,,0.11,0.00,VWS V14.01,2013-06-17 23:50:00,
2013-06-17 19:55:00,77.3,75.5,29.98,SW,222,1.1,3.3,94,0.07,,,0.12,0.00,VWS V14.01,2013-06-17 23:55:00,
2013-06-17 20:00:00,76.9,75.1,29.98,SW,222,0.0,2.2,94,0.07,,,0.13,0.00,VWS V14.01,2013-06-18 00:00:00,
2013-06-17 20:05:00,76.6,74.7,29.99,SSW,200,1.1,1.1,94,0.07,,,0.13,5.00,VWS V14.01,2013-06-18 00:05:00,
2013-06-17 20:10:00,76.4,74.6,29.99,South,176,0.0,0.0,94,0.06,,,0.13,5.00,VWS V14.01,2013-06-18 00:10:00,
2013-06-17 20:15:00,76.3,74.5,29.99,South,176,0.0,0.0,94,0.07,,,0.14,0.00,VWS V14.01,2013-06-18 00:15:00,
2013-06-17 20:20:00,76.3,74.8,29.98,South,176,0.0,0.0,95,0.06,,,0.14,0.00,VWS V14.01,2013-06-18 00:20:00,
2013-06-17 20:25:00,76.2,74.7,29.98,South,176,0.0,0.0,95,0.07,,,0.15,0.00,VWS V14.01,2013-06-18 00:25:00,
2013-06-17 20:30:00,76.2,74.6,29.98,South,176,0.0,0.0,95,0.06,,,0.15,0.00,VWS V14.01,2013-06-18 00:30:00,
2013-06-17 20:35:00,76.1,74.8,29.98,South,176,0.0,0.0,96,0.06,,,0.15,0.00,VWS V14.01,2013-06-18 00:35:00,
2013-06-17 20:40:00,75.9,74.7,29.98,South,176,0.0,0.0,96,0.05,,,0.15,0.00,VWS V14.01,2013-06-18 00:40:00,
2013-06-17 20:45:00,75.8,74.6,29.98,South,176,0.0,0.0,96,0.04,,,0.15,0.00,VWS V14.01,2013-06-18 00:45:00,
2013-06-17 20:50:00,75.9,74.7,29.99,South,176,0.0,0.0,96,0.04,,,0.15,0.00,VWS V14.01,2013-06-18 00:50:00,
2013-06-17 20:55:00,75.8,74.6,29.98,South,176,0.0,0.0,96,0.03,,,0.15,0.00,VWS V14.01,2013-06-18 00:55:00,
2013-06-17 21:00:00,75.8,74.9,29.98,South,176,0.0,0.0,97,0.02,,,0.15,0.00,VWS V14.01,2013-06-18 01:00:00,
2013-06-17 21:05:00,75.8,74.8,29.98,South,176,0.0,0.0,97,0.02,,,0.15,0.00,VWS V14.01,2013-06-18 01:05:00,
2013-06-17 21:10:00,75.7,74.7,29.98,South,176,0.0,0.0,97,0.02,,,0.15,0.00,VWS V14.01,2013-06-18 01:10:00,
2013-06-17 21:15:00,75.7,74.7,29.98,South,176,0.0,0.0,97,0.01,,,0.15,0.00,VWS V14.01,2013-06-18 01:15:00,
2013-06-17 21:20:00,75.7,74.7,29.98,South,176,0.0,0.0,97,0.01,,,0.15,0.00,VWS V14.01,2013-06-18 01:20:00,
2013-06-17 21:25:00,75.7,74.7,29.98,South,176,0.0,0.0,97,0.00,,,0.15,0.00,VWS V14.01,2013-06-18 01:25:00,
2013-06-17 21:30:00,75.7,74.7,29.98,South,176,0.0,0.0,97,0.00,,,0.15,0.00,VWS V14.01,2013-06-18 01:30:00,
2013-06-17 21:35:00,75.8,74.8,29.98,South,176,0.0,0.0,97,0.00,,,0.15,0.00,VWS V14.01,2013-06-18 01:35:00,
2013-06-17 21:40:00,75.8,74.9,29.98,South,176,0.0,0.0,97,0.00,,,0.15,0.00,VWS V14.01,2013-06-18 01:40:00,
2013-06-17 21:45:00,76.1,75.1,29.99,South,176,0.0,0.0,97,0.00,,,0.15,0.00,VWS V14.01,2013-06-18 01:45:00,
2013-06-17 21:50:00,76.2,75.3,29.99,South,176,0.0,1.1,97,0.00,,,0.15,0.00,VWS V14.01,2013-06-18 01:50:00,
2013-06-17 21:55:00,76.8,76.2,29.99,SSW,200,0.0,1.1,98,0.00,,,0.15,0.00,VWS V14.01,2013-06-18 01:55:00,
2013-06-17 22:00:00,76.9,76.0,30.00,SSW,210,0.0,0.0,97,0.00,,,0.15,0.00,VWS V14.01,2013-06-18 02:00:00,
2013-06-17 22:05:00,77.1,76.1,30.00,SE,141,0.0,2.2,97,0.00,,,0.15,0.00,VWS V14.01,2013-06-18 02:05:00,
2013-06-17 22:10:00,77.1,76.1,30.00,SSW,212,0.0,0.0,97,0.00,,,0.15,0.00,VWS V14.01,2013-06-18 02:10:00,
2013-06-17 22:15:00,77.1,76.1,30.00,South,191,0.0,0.0,97,0.00,,,0.15,0.00,VWS V14.01,2013-06-18 02:15:00,
2013-06-17 22:20:00,76.9,76.0,30.00,SW,227,1.1,1.1,97,0.00,,,0.15,0.00,VWS V14.01,2013-06-18 02:20:00,
2013-06-17 22:25:00,76.9,76.0,30.00,SSW,198,1.1,1.1,97,0.00,,,0.15,0.00,VWS V14.01,2013-06-18 02:25:00,
2013-06-17 22:30:00,76.9,76.0,30.00,SSE,166,0.0,0.0,97,0.00,,,0.15,0.00,VWS V14.01,2013-06-18 02:30:00,
2013-06-17 22:35:00,76.8,75.8,30.00,South,186,0.0,0.0,97,0.00,,,0.15,0.00,VWS V14.01,2013-06-18 02:35:00,
2013-06-17 22:40:00,76.8,75.8,30.01,SW,222,0.0,0.0,97,0.00,,,0.15,0.00,VWS V14.01,2013-06-18 02:40:00,
2013-06-17 22:45:00,76.7,75.7,30.00,ESE,111,0.0,0.0,97,0.00,,,0.15,0.00,VWS V14.01,2013-06-18 02:45:00,
2013-06-17 22:50:00,76.7,75.7,30.00,South,172,0.0,0.0,97,0.00,,,0.15,0.00,VWS V14.01,2013-06-18 02:50:00,
2013-06-17 22:55:00,76.8,75.9,30.00,SSW,206,1.1,1.1,97,0.00,,,0.15,0.00,VWS V14.01,2013-06-18 02:55:00,
2013-06-17 23:00:00,76.8,75.8,30.00,SSE,164,0.0,0.0,97,0.00,,,0.15,0.00,VWS V14.01,2013-06-18 03:00:00,
2013-06-17 23:05:00,76.6,75.6,30.00,SSW,206,0.0,1.1,97,0.00,,,0.15,0.00,VWS V14.01,2013-06-18 03:05:00,
2013-06-17 23:10:00,76.4,75.5,30.00,SE,146,0.0,0.0,97,0.00,,,0.15,0.00,VWS V14.01,2013-06-18 03:10:00,
2013-06-17 23:15:00,76.4,75.5,30.00,SSE,160,1.1,1.1,97,0.01,,,0.16,0.00,VWS V14.01,2013-06-18 03:15:00,
2013-06-17 23:20:00,76.4,75.5,30.00,SSE,157,0.0,0.0,97,0.01,,,0.16,0.00,VWS V14.01,2013-06-18 03:20:00,
2013-06-17 23:25:00,76.3,75.4,30.00,SW,226,0.0,0.0,97,0.01,,,0.16,0.00,VWS V14.01,2013-06-18 03:25:00,
2013-06-17 23:30:00,76.2,75.3,30.00,NW,304,0.0,0.0,97,0.01,,,0.16,0.00,VWS V14.01,2013-06-18 03:30:00,
2013-06-17 23:35:00,76.2,75.2,30.01,SW,235,0.0,2.2,97,0.01,,,0.16,0.00,VWS V14.01,2013-06-18 03:35:00,
2013-06-17 23:40:00,76.1,75.1,30.00,West,260,0.0,0.0,97,0.02,,,0.17,0.00,VWS V14.01,2013-06-18 03:40:00,
2013-06-17 23:45:00,75.8,74.8,29.99,SSE,159,1.1,2.2,97,0.03,,,0.18,0.00,VWS V14.01,2013-06-18 03:45:00,
2013-06-17 23:50:00,75.8,74.8,29.98,SSE,158,0.0,0.0,97,0.03,,,0.18,0.00,VWS V14.01,2013-06-18 03:50:00,
2013-06-17 23:55:00,75.7,74.7,29.98,SSE,158,0.0,0.0,97,0.04,,,0.19,0.00,VWS V14.01,2013-06-18 03:55:00,